[[[{"header":{"parameterUnit":"kt","parameterCategory":2,"dx":1,"dy":1,"la1":30.253999710083008,"la2":30.299108505249023,"lo1":-89.0895004272461,"lo2":-89.04439544677734,"nx":28,"ny":28,"refTime":"2022-10-27T21:00:00:Z","depth":0,"parameterNumber":1,"parameterNumberName":"U-component_of_WINDS"},"data":[-9.2216,-9.2372,-9.2392,-9.2581,-9.2631,-9.2764,-9.2818,-9.2892,-9.2955,-9.312,-9.3219,-9.3257,-9.333,-9.3456,-9.3566,-9.358,-9.3625,-9.367,-9.3678,-9.346,-9.3432,-9.3404,-9.3365,-9.368,-9.368,-9.3899,-9.3901,-9.3903,-9.2067,-9.2117,-9.2222,-9.2335,-9.2426,-9.2397,-9.2486,-9.2564,-9.2685,-9.2764,-9.286,-9.3007,-9.3127,-9.3184,-9.3303,-9.3381,-9.3373,-9.3412,-9.3404,-9.3416,-9.3185,-9.3144,-9.3417,-9.3417,-9.3417,-9.3417,-9.3417,-9.3417,-9.18,-9.1893,-9.197,-9.2083,-9.2145,-9.2222,-9.2314,-9.2354,-9.2457,-9.2578,-9.2581,-9.2718,-9.2801,-9.295,-9.3005,-9.3116,-9.3075,-9.3123,-9.3134,-9.3145,-9.3156,-9.2839,-9.3137,-9.3136,-9.3135,-9.3135,-9.3134,0,-9.1609,-9.1617,-9.1715,-9.1821,-9.1904,-9.1987,-9.2066,-9.2124,-9.2146,-9.2231,-9.2355,-9.2429,-9.2579,-9.2699,-9.2813,-9.2859,-9.2833,-9.2833,-9.2865,-9.2863,-9.2851,-9.2859,-9.2481,-9.2821,-9.2819,-9.2817,-9.2816,-9.2814,-9.1339,-9.1443,-9.1529,-9.1597,-9.1642,-9.1751,-9.1819,-9.1829,-9.1901,-9.2002,-9.2084,-9.2203,-9.2298,-9.2496,-9.254,-9.2652,-9.2639,-9.2768,-9.2655,-9.2654,-9.264,-9.2632,-9.2644,-9.2787,-9.279,-9.2793,-9.2796,0,-9.1186,-9.1209,-9.1374,-9.1447,-9.147,-9.158,-9.1643,-9.1737,-9.1762,-9.1895,-9.1926,-9.1966,-9.2088,-9.211,-9.2253,-9.2262,-9.2452,-9.2438,-9.2425,-9.2422,-9.2539,-9.2528,-9.2914,-9.2965,-9.2642,-9.2645,-9.2647,0,-9.0962,-9.1098,-9.1124,-9.1218,-9.1372,-9.1373,-9.1526,-9.1561,-9.1626,-9.173,-9.1702,-9.1801,-9.1812,-9.1916,-9.1927,-9.2087,-9.2113,-9.2128,-9.2129,-9.2128,-9.2126,-9.2163,-9.2147,-9.2127,-9.2124,-9.2123,-9.2121,0,-9.0716,-9.0887,-9.1041,-9.1083,-9.117,-9.1244,-9.1285,-9.1355,-9.142,-9.151,-9.1553,-9.1658,-9.1715,-9.1799,-9.1811,-9.1734,-9.2006,-9.1902,-9.202,-9.202,-9.2074,-9.207,-9.2411,-9.2119,-9.2118,-9.2117,-9.2117,0,-9.0535,-9.0621,-9.084,-9.0912,-9.0956,-9.1058,-9.1157,-9.1249,-9.1325,-9.1336,-9.1406,-9.1387,-9.1524,-9.1421,-9.1613,-9.1509,-9.1569,-9.1596,-9.1604,-9.1613,-9.1495,-9.1682,-9.2007,-9.2041,-9.1631,-9.1627,-9.1624,0,-9.0249,-9.0472,-9.0471,-9.0679,-9.0784,-9.0741,-9.0856,-9.092,-9.0944,-9.104,-9.1067,-9.1175,-9.1102,-9.1137,-9.1231,-9.1263,-9.1399,-9.1246,-9.1387,-9.1392,-9.1366,-9.1666,-9.1706,-9.1935,-9.1572,-9.1577,-9.1581,0,-9.0026,-9.0124,-9.016,-9.0207,-9.0288,-9.0374,-9.0505,-9.0609,-9.0673,-9.0747,-9.0857,-9.101,-9.0961,-9.1019,-9.1011,-9.1107,-9.1307,-9.104,-9.1042,-9.1088,-9.1546,-9.1586,-9.1624,-9.1283,-9.1289,-9.1294,-9.154,0,-8.9748,-8.9859,-8.9958,-9.0056,-9.0125,-9.0254,-9.0266,-9.0338,-9.0323,-9.0341,-9.0504,-9.0558,-9.0664,-9.0711,-9.0695,-9.0906,-9.0873,-9.0817,-9.0713,-9.091,-9.0992,-9.1025,-9.0591,-9.0588,-9.0586,-9.0584,0,0,-8.9467,-8.9623,-8.9612,-8.9733,-8.979,-8.9737,-8.9874,-8.9924,-9.0023,-9.0066,-9.0008,-9.0228,-9.0273,-9.0467,-9.053,-9.0573,-9.0612,-9.0539,-9.0816,-9.0842,-9.0866,-9.0953,-9.0988,-9.0579,-9.0578,-9.0577,-9.0577,0,-8.9364,-8.9407,-8.9539,-8.9589,-8.9661,-8.9672,-8.9705,-8.9766,-8.9783,-8.9937,-8.9891,-8.9989,-9.0161,-9.0216,-9.0266,-9.0519,-9.0477,-9.0551,-9.0682,-9.0791,-9.082,-9.0846,-9.0937,-9.097,-9.0571,-9.0571,-9.0571,0,-8.9146,-8.9189,-8.9252,-8.9374,-8.9419,-8.9526,-8.9421,-8.9536,-8.9617,-8.9549,-8.9702,-8.9733,-8.9806,-8.9986,-9.0067,-9.0017,-9.0353,-9.0247,-9.0263,-9.0271,-9.0377,-9.0412,-9.0443,-9.0031,-9.0029,-9.0027,0,0,-8.9056,-8.9155,-8.92,-8.9351,-8.9384,-8.9399,-8.9455,-8.9443,-8.9506,-8.9531,-8.9567,-8.9633,-8.9733,-8.9799,-8.9893,-9.0089,-9.0104,-9.018,-9.0206,-9.0226,-9.0245,-9.0357,-9.0391,-9.002,-9.002,-9.0019,0,0,-8.9012,-8.9067,-8.9038,-8.9214,-8.9276,-8.9328,-8.9422,-8.9388,-8.9471,-8.9456,-8.9441,-8.9458,-8.9626,-8.9657,-8.9558,-8.9856,-8.9753,-8.9776,-8.9828,-8.986,-8.9885,-8.9872,-8.9454,0,0,0,0,0,-8.8908,-8.9061,-8.9033,-8.9063,-8.9213,-8.9344,-8.9364,-8.9352,-8.9281,-8.9356,-8.9381,-8.9331,-8.9602,-8.9514,-8.9546,-8.9654,-8.9926,-8.9942,-8.9958,-9.0071,-9.0104,-9.0133,0,0,0,0,0,0,-8.8919,-8.8956,-8.9029,-8.9088,-8.9122,-8.9338,-8.9214,-8.9216,-8.9272,-8.926,-8.9328,-8.9333,-8.9327,-8.9497,-8.9526,-8.9629,-8.9445,-8.9932,-8.9946,-8.9959,-9.0082,-9.011,-9.0133,0,0,0,0,0,-8.8929,-8.8958,-8.92,-8.9086,-8.9115,-8.9138,-8.9208,-8.9208,-8.9252,-8.9288,-8.9291,-8.9238,-8.933,-8.9354,-8.9514,-8.9616,-8.9425,-8.9435,-8.9941,-8.9952,-8.9962,-9.0096,0,0,0,0,0,0,-8.8936,-8.896,-8.9206,-8.9214,-8.9025,-8.9125,-8.914,-8.9202,-8.9276,-8.9281,-8.9197,-8.9187,-8.9334,-8.9352,-8.937,-8.9612,-8.9408,-8.9419,-8.9426,-8.995,-8.9959,-8.9966,0,0,0,0,0,0,-8.8944,-8.8968,-8.921,-8.9134,-8.9133,-8.9114,-8.9127,-8.9261,-8.9277,-8.918,-8.9174,-8.9191,-8.9307,-8.9351,-8.9365,-8.9574,-8.9396,-8.9406,-8.9414,-8.9418,-8.9957,-8.9964,0,0,0,0,0,0,-8.8954,-8.8975,-8.9131,-8.9131,-8.913,-8.9226,-8.9232,-8.9386,-8.921,-8.9178,-8.9194,-8.9186,-8.9309,-8.9322,-8.9363,-8.9566,-8.9572,-8.9396,-8.9403,-8.9408,-8.9412,0,0,0,0,0,0,0,-8.8962,-8.8827,-8.9155,-8.9129,-8.9128,-8.9294,-8.9297,-8.9299,-8.9208,-8.9202,-8.9195,-8.9189,-8.9336,-8.9347,-8.9359,-8.9559,0,0,-8.9395,-8.94,0,0,0,0,0,0,0,0,-8.8819,-8.8825,-8.9155,-8.9157,-8.9158,-8.9295,-8.9297,-8.9298,-8.9207,-8.9202,-8.9197,-8.9192,-8.9339,-8.9348,-8.9358,0,0,0,0,0,0,0,0,0,0,0,0,0,0,0,-8.9155,-8.9157,0,-8.9295,-8.9296,-8.9298,-8.9206,-8.9202,-8.9198,-8.9194,-8.9341,-8.9349,-8.9357,0,0,0,0,0,0,0,0,0,0,0,0,0,0,0,0,0,0,0,0,0,0,0,0,0,0,0,0,0,0,0,0,0,0,0,0,0,0,0,0,0,0,0,0,0,0,0,0,0,0,0,0,0,0,0,0,0,0,0,0,0,0,0,0,0,0,0,0,0]}],[{"header":{"parameterUnit":"kt","parameterCategory":2,"dx":1,"dy":1,"la1":30.253999710083008,"la2":30.299108505249023,"lo1":-89.0895004272461,"lo2":-89.04439544677734,"nx":28,"ny":28,"refTime":"2022-10-27T21:00:00:Z","depth":0,"parameterNumber":2,"parameterNumberName":"V-component_of_WINDS"},"data":[2.5434,2.5341,2.5364,2.5267,2.527,2.5207,2.5191,2.5173,2.5163,2.5089,2.5049,2.506,2.5057,2.5013,2.497,2.4975,2.4954,2.4906,2.492,2.5118,2.5146,2.5173,2.5198,2.4902,2.4902,2.4711,2.4709,2.4708,2.5581,2.5585,2.554,2.5512,2.5473,2.5534,2.5515,2.5478,2.5419,2.5406,2.5368,2.5303,2.5253,2.5266,2.5221,2.5175,2.5199,2.5161,2.5163,2.5161,2.5375,2.54,2.5143,2.5143,2.5143,2.5143,2.5143,2.5143,2.5855,2.5798,2.5794,2.5745,2.5737,2.5717,2.5665,2.5681,2.5635,2.5593,2.5626,2.5558,2.5547,2.5502,2.5491,2.5437,2.5482,2.5445,2.5436,2.5425,2.5412,2.5683,2.543,2.5431,2.5432,2.5432,2.5433,0,2.6061,2.6084,2.6043,2.6007,2.5973,2.5946,2.5926,2.5894,2.5947,2.5906,2.5849,2.5819,2.5759,2.5706,2.5668,2.5663,2.5717,2.5725,2.57,2.5681,2.5671,2.5674,2.6019,2.5731,2.5733,2.5735,2.5736,2.5738,2.6337,2.6268,2.6274,2.6241,2.6236,2.6181,2.6153,2.6205,2.6172,2.6152,2.6097,2.6046,2.6007,2.5908,2.5922,2.5876,2.5901,2.5789,2.5894,2.5881,2.5897,2.59,2.5893,2.5766,2.5762,2.5759,2.5757,0,2.649,2.6527,2.6426,2.6437,2.6438,2.6362,2.6371,2.6314,2.6334,2.6258,2.6243,2.6273,2.6214,2.6247,2.6185,2.6203,2.6074,2.6101,2.608,2.6086,2.5987,2.5995,2.5665,2.5624,2.5933,2.593,2.5928,0,2.6739,2.6644,2.6704,2.6643,2.654,2.6595,2.6491,2.6497,2.649,2.643,2.6499,2.6441,2.6493,2.6439,2.6466,2.6367,2.6355,2.6362,2.637,2.6354,2.6353,2.6333,2.6346,2.6392,2.6394,2.6395,2.6396,0,2.6972,2.6894,2.6796,2.6783,2.6784,2.6736,2.6733,2.6725,2.6695,2.6662,2.6643,2.6599,2.6574,2.6539,2.6574,2.6644,2.6454,2.6557,2.646,2.6459,2.6413,2.6415,2.6118,2.6399,2.6399,2.64,2.64,0,2.7177,2.7146,2.6998,2.7001,2.6978,2.6912,2.6875,2.6826,2.6811,2.6825,2.6798,2.6846,2.6763,2.6864,2.6749,2.6831,2.6802,2.6802,2.6795,2.6786,2.6897,2.6722,2.6438,2.6408,2.6784,2.6787,2.679,0,2.7435,2.7295,2.7341,2.7198,2.7138,2.7221,2.7148,2.7133,2.7146,2.7095,2.7108,2.7047,2.7129,2.7115,2.7054,2.7063,2.6957,2.7079,2.6999,2.6996,2.7,2.674,2.6688,2.6498,2.6831,2.6827,2.6824,0,2.7638,2.7642,2.7612,2.76,2.759,2.7539,2.7456,2.741,2.7374,2.7348,2.7278,2.7194,2.7253,2.7226,2.726,2.7195,2.7031,2.7264,2.7265,2.722,2.6855,2.6807,2.6774,2.7067,2.7062,2.7058,2.6856,0,2.7937,2.7871,2.7796,2.7765,2.7731,2.7643,2.768,2.764,2.7677,2.7692,2.7589,2.7581,2.753,2.7502,2.7536,2.7377,2.7408,2.7469,2.7565,2.7396,2.733,2.7303,2.7662,2.7665,2.7667,2.7669,0,0,2.8173,2.8079,2.8131,2.8053,2.8028,2.8114,2.8016,2.8,2.7965,2.7944,2.8,2.7879,2.7869,2.7739,2.7689,2.7668,2.7642,2.7699,2.7477,2.7455,2.7435,2.7364,2.7336,2.7674,2.7675,2.7676,2.7677,0,2.8289,2.8284,2.8188,2.8176,2.8159,2.8179,2.8156,2.8153,2.8157,2.8057,2.8125,2.8067,2.7967,2.7948,2.7925,2.7717,2.7769,2.7699,2.7576,2.7502,2.7477,2.7455,2.7379,2.7352,2.7683,2.7682,2.7682,0,2.8495,2.8495,2.8453,2.84,2.8388,2.8323,2.8436,2.8361,2.8312,2.8404,2.8302,2.8301,2.8277,2.8151,2.8095,2.8142,2.7883,2.797,2.7955,2.7948,2.7877,2.7847,2.782,2.8172,2.8174,2.8176,0,0,2.859,2.8529,2.8543,2.8427,2.8416,2.8444,2.8412,2.8446,2.8426,2.8416,2.8416,2.8391,2.8335,2.8295,2.8243,2.8098,2.8096,2.8029,2.8006,2.7987,2.797,2.7894,2.7864,2.8181,2.8182,2.8182,0,0,2.8634,2.8647,2.8689,2.856,2.854,2.8543,2.8469,2.852,2.8477,2.849,2.8539,2.8535,2.8417,2.8411,2.8488,2.8277,2.8372,2.8355,2.8284,2.8255,2.8232,2.8234,2.8598,0,0,0,0,0,2.8771,2.8646,2.8684,2.8668,2.8599,2.8523,2.8514,2.8554,2.8622,2.8563,2.8571,2.8629,2.8464,2.8533,2.8514,2.8426,2.8259,2.8245,2.8232,2.8107,2.8077,2.8051,0,0,0,0,0,0,2.8765,2.8746,2.8688,2.8685,2.867,2.8527,2.8651,2.8659,2.8629,2.8642,2.8626,2.8629,2.8659,2.8545,2.8527,2.8443,2.8604,2.8253,2.8242,2.8231,2.8097,2.8072,2.8051,0,0,0,0,0,2.8761,2.8745,2.8624,2.8687,2.8674,2.8697,2.8656,2.8663,2.8641,2.8652,2.8656,2.8674,2.8655,2.8643,2.8535,2.845,2.8616,2.861,2.8246,2.8237,2.8228,2.8085,0,0,0,0,0,0,2.8757,2.875,2.8622,2.862,2.8737,2.8706,2.8703,2.8667,2.8653,2.8657,2.8702,2.8712,2.8651,2.8643,2.8633,2.8451,2.8626,2.862,2.8615,2.8239,2.8232,2.8225,0,0,0,0,0,0,2.8759,2.8747,2.8621,2.8682,2.8687,2.8714,2.8711,2.8623,2.8652,2.8704,2.8713,2.8707,2.8665,2.8642,2.8634,2.8496,2.8634,2.8628,2.8623,2.862,2.8233,2.8227,0,0,0,0,0,0,2.8754,2.8744,2.8683,2.8687,2.8691,2.8665,2.8637,2.8562,2.8708,2.8704,2.8722,2.8729,2.8661,2.8655,2.8635,2.8499,2.8497,2.8634,2.8629,2.8626,2.8624,0,0,0,0,0,0,0,2.8751,2.8809,2.8638,2.869,2.8695,2.8595,2.8594,2.8594,2.871,2.8715,2.8721,2.8726,2.8671,2.8664,2.8657,2.8502,0,0,2.8635,2.8631,0,0,0,0,0,0,0,0,2.8815,2.8811,2.8638,2.8638,2.8637,2.8595,2.8595,2.8594,2.8711,2.8715,2.872,2.8724,2.8669,2.8664,2.8658,0,0,0,0,0,0,0,0,0,0,0,0,0,0,0,2.8638,2.8638,0,2.8595,2.8595,2.8594,2.8711,2.8715,2.8719,2.8722,2.8668,2.8663,2.8658,0,0,0,0,0,0,0,0,0,0,0,0,0,0,0,0,0,0,0,0,0,0,0,0,0,0,0,0,0,0,0,0,0,0,0,0,0,0,0,0,0,0,0,0,0,0,0,0,0,0,0,0,0,0,0,0,0,0,0,0,0,0,0,0,0,0,0,0,0]}]]]